Madison, WI

11:19 AM CDT on March 25, 2017 (GMT -0500)
Dane County Regional-Truax

Weather History for KMSN - December, 2011

Change the Weather History Date:

Thursday, December 8, 2011

  Actual Average Record
Temperature  
Mean Temperature 29 °F 25 °F  
Max Temperature 36 °F 32 °F 60 °F (1946)
Min Temperature 22 °F 18 °F -16 °F (1876)
Degree Days  
Heating Degree Days 36 40  
Month to date heating degree days 258 306  
Since 1 July heating degree days 1610 1885  
Cooling Degree Days 0 0  
Month to date cooling degree days 0 0  
Year to date cooling degree days 814 568  
Moisture  
Dew Point 14 °F    
Average Humidity 59    
Maximum Humidity 84    
Minimum Humidity 33    
Precipitation  
Precipitation 0.00 in 0.07 in 0.82 in (1966)
Month to date precipitation 1.03 0.57  
Year to date precipitation 29.34 33.31  
Snow  
Snow 0.00 in 0.50 in 7.10 in (2009)
Month to date snowfall T 3.3  
Since 1 July snowfall 1.6 7.4  
Snow Depth 0.00 in    
Sea Level Pressure  
Sea Level Pressure 30.17 in    
Wind  
Wind Speed 6 mph (West)    
Max Wind Speed 14 mph    
Max Gust Speed 21 mph    
Visibility 10 miles    
Events      
T = Trace of Precipitation, MM = Missing Value Source: NWS Daily Summary

Daily Weather History Graph

Daily Weather History Graph

Search for Another Location

Airport or City:

Trip Planner

Search our weather history database for the weather conditions in past years. The results will help you decide how hot, cold, wet, or windy it might be!

Date:

Astronomy

Dec. 08, 2011 Rise Set
Actual Time 7:16 AM CST 4:22 PM CST
Civil Twilight 6:43 AM CST 4:54 PM CST
Nautical Twilight 6:08 AM CST 5:30 PM CST
Astronomical Twilight 5:33 AM CST 6:04 PM CST
Moon 3:01 PM CST (12/8) 5:27 AM CST (12/8)
Length of Visible Light 10h 10m
Length of Day
9h 05m
Waxing Gibbous, 97% of the Moon is Illuminated
Dec 8
Waxing Gibbous
Dec 10
Full
Dec 17
Last Quarter
Dec 24
New
Jan 1
First Quarter

Hourly Weather History & Observations

Time (CST) Temp. Windchill Dew Point Humidity Pressure Visibility Wind Dir Wind Speed Gust Speed Precip Events Conditions
12:53 AM 21.9 °F - 17.1 °F 82% 30.11 in 7.0 mi Calm Calm - N/A   Mostly Cloudy
1:53 AM 21.9 °F - 17.1 °F 82% 30.13 in 7.0 mi Calm Calm - N/A   Mostly Cloudy
2:53 AM 24.1 °F 18.2 °F 19.0 °F 81% 30.13 in 8.0 mi WSW 4.6 mph - N/A   Overcast
3:53 AM 24.1 °F - 19.0 °F 81% 30.13 in 8.0 mi Calm Calm - N/A   Overcast
4:53 AM 24.1 °F 18.2 °F 19.0 °F 81% 30.13 in 9.0 mi WNW 4.6 mph - N/A   Overcast
5:53 AM 25.0 °F 20.7 °F 19.0 °F 78% 30.16 in 9.0 mi WSW 3.5 mph - N/A   Overcast
6:53 AM 25.0 °F - 19.0 °F 78% 30.18 in 10.0 mi Calm Calm - N/A   Mostly Cloudy
7:53 AM 25.0 °F 20.7 °F 19.0 °F 78% 30.20 in 9.0 mi Variable 3.5 mph - N/A   Partly Cloudy
8:53 AM 27.0 °F 23.0 °F 19.0 °F 72% 30.21 in 10.0 mi Variable 3.5 mph - N/A   Partly Cloudy
9:53 AM 28.9 °F 21.9 °F 19.0 °F 67% 30.21 in 10.0 mi West 6.9 mph - N/A   Clear
10:53 AM 32.0 °F 25.6 °F 18.0 °F 56% 30.20 in 10.0 mi West 6.9 mph - N/A   Partly Cloudy
11:53 AM 34.0 °F 27.2 °F 14.0 °F 44% 30.18 in 10.0 mi West 8.1 mph - N/A   Partly Cloudy
12:53 PM 35.1 °F 27.9 °F 12.0 °F 39% 30.16 in 10.0 mi WSW 9.2 mph 17.3 mph N/A   Scattered Clouds
1:53 PM 35.1 °F 29.3 °F 12.9 °F 40% 30.15 in 10.0 mi WSW 6.9 mph - N/A   Partly Cloudy
2:53 PM 34.0 °F 26.6 °F 12.9 °F 42% 30.15 in 10.0 mi West 9.2 mph 16.1 mph N/A   Partly Cloudy
3:53 PM 33.1 °F 27.7 °F 14.0 °F 46% 30.15 in 10.0 mi Variable 5.8 mph - N/A   Partly Cloudy
4:53 PM 32.0 °F 24.8 °F 16.0 °F 52% 30.15 in 10.0 mi WSW 8.1 mph - N/A   Partly Cloudy
5:53 PM 30.0 °F 21.7 °F 15.1 °F 54% 30.16 in 10.0 mi West 9.2 mph 17.3 mph N/A   Partly Cloudy
6:53 PM 28.9 °F 20.4 °F 15.1 °F 56% 30.18 in 10.0 mi West 9.2 mph - N/A   Overcast
7:53 PM 27.0 °F 16.7 °F 12.0 °F 53% 30.20 in 10.0 mi WNW 11.5 mph 17.3 mph N/A   Overcast
8:53 PM 26.1 °F 18.4 °F 1.9 °F 35% 30.20 in 10.0 mi West 6.9 mph 17.3 mph N/A   Overcast
9:53 PM 24.1 °F 17.0 °F 3.0 °F 40% 30.21 in 10.0 mi NW 5.8 mph - N/A   Scattered Clouds
10:53 PM 23.0 °F 15.8 °F 5.0 °F 46% 30.22 in 10.0 mi WNW 5.8 mph - N/A   Overcast
11:53 PM 21.9 °F 13.4 °F 6.1 °F 51% 30.22 in 10.0 mi WNW 6.9 mph - N/A   Overcast